Location: Brahman Valley
(40.6513°N, 111.8855°W)
Time: 07:54:37
(UTC+00:00)

Tiros 1 despin weight - Pass Details

Date: 16 May 2021
Orbit: 594 x 641 km, 48.2° (Epoch: 22 June)

Event Time Altitude Azimuth Distance (km) Brightness Sun altitude
Rises 03:38:51 0° 259° (W) 2,915 ? -10.6°
Reaches altitude 10° 03:41:13 10° 265° (W) 2,015 ? -11.0°
Maximum altitude 03:45:44 49° 340° (NNW) 827 ? -11.7°
Drops below altitude 10° 03:50:17 10° 56° (NE) 2,033 ? -12.3°
Sets 03:52:42 0° 62° (ENE) 2,944 ? -12.7°
